Regional Weather Roundup
Issued by NWS

Home | Current Version | Previous Version | Graphics & Text | Print | Product List | Glossary On
Versions: 1 2 3 4 5 6 7 8 9 10 11 12 13 14 15 16 17 18 19 20 21 22 23 24 25 26 27 28 29 30 31 32 33 34 35 36 37 38 39 40 41 42 43 44 45 46 47 48 49 50
000
ASUS45 KPSR 291910
RWRAZ

ARIZONA HOURLY REGIONAL WEATHER ROUNDUP
NATIONAL WEATHER SERVICE PHOENIX AZ
1200 PM MST SAT AUG 29 2015

NOTE: FAIR INDICATES FEW OR NO CLOUDS BELOW 12,000 FEET WITH NO
SIGNIFICANT WEATHER AND/OR OBSTRUCTIONS TO VISIBILITY.

AZZ001>003-036-292000-
NORTHWEST ARIZONA

CITY           SKY/WX    TMP DP  RH WIND       PRES   REMARKS
BULLHEAD CITY  SUNNY    106  54  17 SW7G16    29.82F HX 104
KINGMAN        MOSUNNY   93  50  23 SE13      30.05F
$$

AZZ004>008-015-016-018-292000-
NORTH CENTRAL ARIZONA

CITY           SKY/WX    TMP DP  RH WIND       PRES   REMARKS
GRAND CANYON   MOSUNNY   84  40  21 VRB5      30.32F
WILLIAMS       PTSUNNY   81  41  24 S5        30.38F
PRESCOTT       TSTM      81  51  35 W7        30.21R
FLAGSTAFF      PTSUNNY   79  44  28 MISG      30.36F
PAYSON         SUNNY     86  52  30 S8        30.23F
PAGE           SUNNY     89  44  20 MISG      30.14F
$$

AZZ009>014-017-292000-
NORTHEAST ARIZONA

CITY           SKY/WX    TMP DP  RH WIND       PRES   REMARKS
WINSLOW        SUNNY     88  49  25 CALM      30.20F
SAINT JOHNS    SUNNY     86  51  29 VRB3      30.24F
WINDOW ROCK    SUNNY     86  39  19 VRB5      30.34F
SHOW LOW       SUNNY     81  48  32 W7        30.31F
$$

AZZ023-292000-
GREATER PHOENIX AREA

CITY           SKY/WX    TMP DP  RH WIND       PRES   REMARKS
PHOENIX        MOSUNNY  104  58  21 S7        29.86F HX 104
BUCKEYE        SUNNY    102  57  22 SE3       29.86F HX 101
GLENDALE       MOSUNNY  104  59  22 CALM      29.88F HX 104
LUKE AFB       SUNNY    102  61  25 N2        29.85F HX 103
DEER VALLEY    SUNNY    100  56  23 S6        29.89F
SCOTTSDALE     SUNNY    102  56  21 VRB6      29.91F HX 101
MESA-FALCON    MOSUNNY  102  57  22 SW8       29.89F HX 101
MESA-GATEWAY   MOSUNNY  102  57  22 S7        29.90F HX 101
CHANDLER       MOSUNNY  102  59  24 VRB5      29.88F HX 102
$$

AZZ027-028-292000-
SOUTHWEST MARICOPA COUNTY AND PINAL COUNTY

CITY           SKY/WX    TMP DP  RH WIND       PRES   REMARKS
CASA GRANDE    SUNNY    100  57  23 CALM      29.89F
GILA BEND      FAIR     105  58  21 VRB2      29.84F HX 105
$$

AZZ503-504-507>509-292000-
SOUTHEAST ARIZONA

CITY           SKY/WX    TMP DP  RH WIND       PRES   REMARKS
TUCSON         SUNNY     99  53  21 VRB5      30.01F
DAVIS-MONTHAN  SUNNY     98  56  24 E5        29.99F
RYAN FIELD     SUNNY     99  55  23 E5        29.99
NOGALES        MOSUNNY   96  55  25 VRB6      30.09F
SIERRA VISTA   SUNNY     90  53  28 E9        30.17F
DOUGLAS        SUNNY     91  57  31 CALM      30.13F
SAFFORD        SUNNY     93  55  27 VRB3      30.05F
$$

AZZ020-021-025-026-031-292000-
SOUTHWEST ARIZONA

CITY           SKY/WX    TMP DP  RH WIND       PRES   REMARKS
YUMA           SUNNY    105  58  21 S5        29.80F HX 105
$$

CAZ031-033-041-043-047-048-061-292000-
SOUTHERN CALIFORNIA

CITY           SKY/WX    TMP DP  RH WIND       PRES   REMARKS
DOWNTOWN L.A.  SUNNY     93  62  35 CALM      29.88F
L.A. AIRPORT   SUNNY     82  67  60 W12       29.91S
SAN DIEGO      MOSUNNY   85  66  53 NW7       29.91S
BURBANK        SUNNY     94  59  31 VRB3      29.91F
ONTARIO        MOSUNNY   95  51  22 VRB5      29.92F
RIVERSIDE      SUNNY     94  50  22 VRB3      29.91F
PALM SPRINGS   MOSUNNY  109  48  13 VRB3      29.82F HX 105
EL CENTRO NAS  SUNNY    108  47  13 S6        29.78F HX 104
IMPERIAL       SUNNY    109  48  13 SW7       29.77F HX 105
BLYTHE         SUNNY    108  57  18 S8        29.80F HX 108
NEEDLES        SUNNY    109  51  14 VRB5      29.82F HX 106
$$

NVZ020-UTZ003-292000-
SOUTHERN NEVADA-UTAH

CITY           SKY/WX    TMP DP  RH WIND       PRES   REMARKS
LAS VEGAS      MOSUNNY  103  46  14 SE10      29.88F
SALT LAKE CITY PTSUNNY   93  40  15 S22G28    30.04F
$$

NMZ009-TXZ055-292000-
NEW MEXICO-WEST TEXAS

CITY           SKY/WX    TMP DP  RH WIND       PRES   REMARKS
ALBUQUERQUE    MOSUNNY   86  48  26 VRB7      30.27F
EL PASO        MOSUNNY   86  55  34 VRB5      30.15F
$$


........................KEY........................
SKY/WX - SKY CONDITION/WEATHER
TMP    - TEMPERATURE IN FAHRENHEIT
DP     - DEW POINT IN FAHRENHEIT
RH     - RELATIVE HUMIDITY IN PERCENT
WIND   - DIRECTION AND SPEED IN MILES PER HOUR (MPH)
VRB    - VARIABLE WIND DIRECTION
PRES   - MEAN SEA LEVEL PRESSURE IN INCHES OF MERCURY
         F - FALLING PRESSURE   R - RISING PRESSURE
         S - STEADY PRESSURE
VSB    - VISIBILITY IN MILES
HX     - HEAT INDEX IN FAHRENHEIT
WCI    - WIND CHILL INDEX IN FAHRENHEIT
TC     - TEMPERATURE IN CELSIUS WHICH IS ALSO KNOWN AS
         TEMPERATURE IN CENTIGRADE
AFB    - AIR FORCE BASE
         LUKE AFB IS LUKE AIR FORCE BASE
         DAVIS-MONTHAN IS DAVIS-MONTHAN AIR FORCE BASE
NAS    - NAVAL AIR STATION
         EL CENTRO NAS IS EL CENTRO NAVAL AIR STATION
N/A    - NOT AVAILABLE




USA.gov is the U.S. government's official web portal to all federal, state and local government web resources and services.